Wind_Speed
118 118 118 119 118 118 118 118 118 117 117 117 116 116 117 117 117 116 115 113 110 107 107 108 108 106 105 103 103 104 104 104 104 104 103 103 103 102 100 99 99 98 97 96 95 94 93 92 90 89 89 88 88 88 87 87 88 88 88 88 88 88 88 88 88 87 87 87 87 86 86 85 85 84
120 120 121 121 121 121 121 121 121 120 120 120 120 120 119 120 120 120 119 117 113 111 110 109 109 109 108 107 106 106 106 106 106 106 106 105 106 105 103 103 103 102 101 99 98 97 96 95 94 92 91 90 90 90 89 90 90 90 90 90 90 90 90 90 90 90 90 90 90 89 89 88 87 87
118 118 119 119 120 121 121 122 122 123 122 123 122 123 122 123 123 123 123 122 118 115 114 113 112 111 111 111 111 110 109 109 109 109 109 108 108 107 106 106 106 105 104 103 102 101 99 98 97 96 94 93 93 92 92 92 92 92 92 92 92 92 92 92 92 92 93 93 93 92 92 91 90 90
114 114 114 114 114 115 116 117 118 118 119 120 121 121 122 122 123 123 124 125 122 120 118 116 114 114 114 114 114 114 113 112 112 111 112 111 111 110 109 109 108 108 107 106 105 104 103 102 100 99 98 97 95 95 94 94 94 94 94 94 94 94 94 94 94 94 95 95 95 95 94 94 94 93
112 112 111 110 110 110 110 110 110 110 110 111 112 113 115 116 117 118 120 122 122 121 119 116 114 113 113 114 114 114 114 114 113 113 113 113 113 112 111 111 110 109 109 109 108 107 107 105 104 102 101 99 98 97 97 97 97 96 96 96 96 96 96 96 96 96 97 97 97 97 97 97 97 97
113 113 112 110 109 108 108 106 105 104 103 103 103 103 105 106 107 108 110 112 114 115 114 111 108 106 106 106 107 108 109 109 110 110 111 112 112 111 111 111 111 110 110 110 110 109 109 108 107 106 104 103 101 100 99 99 99 99 99 98 98 97 97 97 97 98 98 98 99 99 99 99 100 100
114 113 112 110 109 108 107 105 103 101 100 99 98 98 98 98 98 99 100 102 103 104 104 103 100 99 96 94 94 96 98 100 101 102 103 106 107 108 108 108 109 109 109 110 110 110 110 110 109 108 107 106 104 103 102 101 101 101 101 100 100 99 99 99 99 99 100 100 100 101 101 102 102 102
111 110 109 107 106 106 106 104 102 100 98 98 97 96 95 95 94 93 94 95 95 95 95 94 92 91 89 86 83 83 86 89 90 91 93 95 98 100 102 103 104 105 106 107 109 110 110 110 110 110 109 108 107 105 104 104 103 103 102 102 102 101 101 101 101 101 101 101 102 102 103 103 104 104
105 104 103 102 102 102 103 102 101 100 98 98 98 96 95 94 92 92 91 91 91 90 89 88 87 85 83 81 77 74 76 79 80 81 82 85 87 90 93 95 97 99 100 101 104 107 108 109 110 110 109 109 108 107 106 106 105 105 104 104 103 102 102 102 102 102 102 102 103 103 104 104 105 105
101 100 99 98 98 99 99 100 100 100 99 98 98 96 95 94 93 91 90 90 89 88 86 85 83 81 79 79 76 70 69 71 73 73 75 77 79 80 83 85 88 92 93 94 97 100 103 105 107 108 108 108 107 107 107 107 107 107 106 105 105 104 103 103 103 102 102 102 103 103 104 104 105 106
96 96 96 96 96 96 96 96 97 98 99 99 99 97 96 95 94 92 91 90 89 87 85 83 81 79 77 77 74 69 66 67 67 68 70 72 73 74 75 77 79 83 86 88 91 93 96 99 101 103 105 105 105 106 107 108 108 108 108 107 106 106 105 104 103 103 103 103 103 103 103 103 104 105
89 90 90 91 92 92 93 93 94 95 96 98 98 98 98 97 96 95 93 91 89 88 85 83 80 78 76 75 72 68 66 64 63 65 67 68 69 71 71 72 72 74 77 80 84 87 89 92 94 97 99 100 102 103 104 106 107 108 108 108 107 107 106 105 104 103 103 102 102 102 102 102 102 103
81 82 83 84 85 87 88 89 90 92 93 95 96 96 97 98 98 97 95 93 92 89 86 83 81 79 76 74 71 67 66 62 59 62 65 66 68 69 69 69 69 69 70 73 77 80 83 86 88 90 92 94 96 98 100 102 103 104 106 106 106 106 105 105 104 103 102 101 100 100 100 100 100 100
71 73 75 77 78 80 82 83 85 87 89 91 92 93 94 96 98 98 98 97 94 92 89 84 82 79 75 73 69 65 64 62 59 61 64 64 66 68 68 67 66 65 66 67 70 74 77 80 82 84 85 87 90 92 94 96 98 99 101 102 103 103 103 103 102 101 101 100 99 98 98 98 98 98
60 63 65 67 69 71 73 75 77 80 82 85 87 89 90 92 94 96 97 97 96 95 92 87 84 81 76 72 69 65 64 63 61 61 62 62 64 66 66 65 63 62 62 64 66 68 71 74 76 78 80 81 83 86 88 90 92 94 96 97 98 99 99 99 99 99 98 98 97 97 96 96 96 97
53 54 56 57 58 60 62 65 68 70 74 77 80 83 85 87 89 92 93 94 94 95 94 90 86 81 76 73 69 65 63 63 63 63 61 61 63 63 63 62 61 60 60 61 62 63 64 67 69 72 74 75 77 79 81 84 86 88 89 91 92 93 94 95 95 95 96 95 95 95 95 95 96 96
50 51 52 53 54 54 56 58 60 61 64 68 72 75 78 81 84 87 89 90 91 92 93 91 87 82 78 74 69 66 64 64 65 64 60 60 60 60 60 60 59 58 58 58 59 58 58 61 63 65 68 70 72 74 76 78 80 81 82 84 85 87 88 89 90 91 91 92 92 93 93 93 93 94
51 52 53 53 54 55 57 58 59 60 61 63 66 68 71 73 77 80 83 85 87 88 88 88 85 83 80 75 70 68 67 66 65 63 60 59 59 59 59 58 57 56 55 55 55 54 54 57 59 59 61 64 67 69 71 72 73 74 75 76 78 79 81 82 83 85 86 87 87 88 88 88 89 89
54 54 55 55 55 56 57 58 60 61 62 63 65 65 66 67 69 73 76 79 81 82 83 82 82 82 80 76 73 71 68 65 63 62 60 59 57 57 57 55 54 53 52 52 53 51 52 55 55 55 57 60 61 64 66 67 68 68 70 71 72 73 74 76 77 79 80 81 82 82 82 83 83 83
52 51 52 53 52 52 52 54 57 60 61 62 63 63 64 65 65 66 68 70 73 76 78 78 78 80 80 78 75 72 68 65 63 61 60 57 55 55 55 52 51 51 51 51 51 50 52 53 52 52 54 56 58 60 61 62 63 65 66 67 68 68 70 71 73 74 75 75 76 76 77 77 77 77
44 45 46 48 48 47 46 46 50 54 56 57 58 59 61 63 63 62 62 64 66 69 72 74 75 77 79 78 76 71 68 65 63 61 58 54 53 55 54 51 51 51 50 51 51 50 51 51 49 50 53 54 55 57 58 59 60 61 62 63 64 65 66 67 68 69 70 71 71 72 73 73 72 73
39 41 44 46 45 44 42 43 46 49 51 51 51 53 55 58 60 59 59 60 61 64 68 71 73 75 77 78 75 71 68 65 62 60 57 54 54 54 52 50 51 50 49 49 48 48 48 48 47 49 51 52 53 54 54 55 56 57 58 59 60 61 62 64 65 65 66 67 68 69 69 69 69 70
38 40 43 45 44 43 41 42 44 46 47 47 46 47 50 52 54 54 55 56 57 60 64 68 70 72 75 76 74 71 67 63 61 59 56 53 53 53 51 50 49 48 47 46 45 46 46 45 46 48 49 50 50 50 51 52 52 53 54 55 56 57 58 59 60 61 62 63 65 66 66 66 68 69
36 39 41 42 42 42 40 40 42 43 43 42 42 43 45 46 48 50 52 52 53 57 62 65 67 70 73 74 73 70 66 62 60 58 54 52 52 52 50 48 48 46 45 44 44 44 44 44 45 46 47 47 47 47 48 48 49 50 51 52 52 53 54 54 55 56 58 59 61 62 63 64 66 68
34 36 36 35 36 37 36 36 38 38 38 37 37 38 40 41 44 47 48 50 52 56 60 63 65 68 71 72 71 67 64 62 59 56 52 51 52 51 49 47 46 45 43 42 42 43 42 43 44 44 45 45 45 45 45 46 47 48 48 49 49 49 49 50 50 52 53 55 57 59 61 62 63 63
31 32 31 29 29 30 30 31 32 32 33 33 34 35 36 39 42 45 47 49 52 55 59 62 63 66 68 69 68 65 63 61 57 53 52 52 51 50 47 46 45 43 42 42 42 42 42 42 43 42 43 43 43 43 44 44 45 45 45 45 45 45 45 45 46 48 50 52 54 56 57 57 57 57
30 30 27 24 23 24 24 26 27 28 29 30 31 32 34 38 42 45 46 48 51 54 57 59 61 63 65 66 65 63 62 59 55 53 52 52 50 48 46 45 44 43 42 41 40 41 41 42 41 41 42 42 42 42 43 43 42 42 42 41 40 41 41 42 43 46 48 50 51 52 52 52 52 52
30 27 23 20 20 20 21 23 24 26 27 28 29 30 33 38 42 44 45 47 49 52 54 56 57 59 62 63 62 61 61 58 55 53 52 51 49 47 45 44 44 42 41 39 40 41 41 41 41 41 42 42 42 41 41 41 40 39 39 38 38 38 39 40 42 44 46 47 48 48 49 49 49 50
28 23 18 16 16 17 19 21 22 23 25 26 27 30 34 38 40 41 42 45 47 49 51 53 55 57 59 60 61 61 60 57 54 52 51 49 47 45 44 43 43 41 40 39 40 41 42 42 42 42 41 41 41 41 40 39 38 37 36 36 36 37 38 39 41 43 43 44 45 46 46 47 48 48
22 18 14 11 11 14 16 18 19 21 23 24 27 31 34 35 36 37 39 42 44 47 49 51 53 55 58 59 60 60 58 55 52 51 50 47 45 44 43 42 41 39 39 39 41 42 43 42 42 41 41 40 40 40 39 37 36 35 35 35 35 35 37 38 40 41 41 42 43 44 44 45 45 45
16 13 10 8 9 12 14 16 19 20 22 25 28 30 31 32 33 35 37 40 43 45 48 50 52 54 57 59 59 58 55 52 50 50 48 46 44 43 42 41 40 38 38 40 41 43 43 43 42 41 40 40 39 38 37 36 35 34 33 33 34 35 36 37 38 39 39 40 41 41 42 42 42 43
11 9 7 7 10 12 14 17 19 20 22 24 26 27 29 31 33 35 38 41 43 45 47 49 51 54 56 57 57 55 52 50 49 49 47 45 44 43 42 40 39 38 38 40 42 43 44 43 42 41 40 39 38 37 36 34 33 32 32 33 33 34 35 35 36 37 37 38 38 39 39 40 41 42
8 7 7 9 11 14 15 17 18 19 21 24 24 24 26 29 33 35 38 40 42 44 46 49 51 54 56 56 54 52 50 49 49 48 46 44 43 42 40 39 38 38 39 40 42 43 43 42 41 40 39 38 37 35 34 32 32 32 32 32 32 33 34 34 34 35 35 36 36 36 37 38 39 40
7 6 7 9 13 15 16 17 18 19 21 23 25 26 28 30 32 34 36 38 41 43 46 49 51 54 54 53 52 50 48 48 48 46 44 43 42 40 39 38 38 38 39 41 42 43 43 42 40 39 38 36 35 33 32 31 31 31 31 31 32 32 32 33 33 33 33 34 34 34 35 36 36 37
6 4 6 9 13 16 17 19 21 22 24 26 28 30 31 31 32 34 36 38 41 43 46 48 50 51 51 50 49 48 47 47 46 45 43 41 40 39 38 38 37 38 39 41 42 42 42 41 39 38 36 34 33 32 31 31 30 30 31 31 31 31 31 32 32 32 32 32 32 32 32 33 33 33
6 2 4 9 13 15 17 19 21 23 25 26 28 30 30 31 32 34 36 39 41 43 45 47 48 49 49 48 47 47 47 47 45 43 41 40 38 38 38 38 37 38 40 41 41 42 41 40 38 36 35 33 32 31 31 30 30 30 30 30 30 30 30 31 31 31 30 29 29 29 29 30 31 31
7 3 3 7 11 13 15 17 19 20 22 23 25 28 30 31 32 34 37 39 41 43 45 46 47 47 47 47 47 47 47 45 43 41 39 38 38 38 37 37 37 38 39 40 40 40 40 38 37 35 34 33 32 31 30 30 30 30 29 29 29 30 30 31 30 30 29 28 27 27 27 27 28 28
8 4 1 3 7 10 13 15 17 19 21 22 25 27 29 31 33 35 37 39 41 43 44 45 46 46 46 46 46 46 45 43 41 39 38 38 37 37 37 37 37 38 39 39 39 39 38 37 36 34 33 33 32 31 30 30 30 29 29 29 29 30 30 30 29 28 27 26 26 25 25 25 25 25
8 6 3 2 5 8 11 14 17 19 22 25 27 29 30 31 33 36 38 40 41 43 43 44 44 45 45 45 45 43 42 40 39 38 37 37 37 36 36 37 38 38 37 37 37 37 36 35 34 33 33 32 31 31 30 29 29 29 28 28 29 29 30 29 28 26 25 25 24 24 23 23 23 24
7 6 5 5 6 9 11 14 18 21 24 26 28 29 30 32 34 36 38 40 41 42 43 43 43 43 43 43 42 41 40 39 38 37 37 36 36 36 37 38 38 37 37 37 37 36 35 34 34 33 33 32 30 29 29 29 28 28 28 28 28 29 29 28 26 25 24 24 23 23 22 22 22 22
6 5 6 7 9 11 13 16 19 22 24 26 28 30 31 33 35 37 39 40 41 42 42 42 42 42 42 42 41 40 39 38 38 37 36 36 36 37 38 38 37 37 37 37 36 35 35 35 35 33 32 30 29 28 28 28 28 28 28 28 28 28 28 27 25 24 23 23 22 22 21 20 20 20
6 6 7 8 10 13 15 17 20 22 24 26 28 30 32 34 35 37 38 39 40 41 41 41 41 41 41 41 40 39 38 37 37 36 36 36 37 37 38 37 37 36 36 36 36 35 35 34 33 30 29 28 28 28 28 28 28 28 28 28 28 27 27 26 24 22 22 23 22 21 19 19 18 19
7 7 8 9 11 13 16 18 20 23 25 27 29 30 32 34 36 37 38 39 40 40 40 41 41 41 40 40 39 38 37 37 36 36 36 36 37 37 37 36 36 35 36 36 35 34 33 32 30 28 28 28 28 28 28 28 28 28 28 28 27 26 25 24 22 22 22 23 21 19 18 17 17 17
8 9 9 10 12 14 16 18 20 23 25 27 29 31 32 34 35 36 37 38 40 40 40 40 40 40 39 39 38 37 37 36 36 35 36 36 37 37 37 36 35 35 35 35 33 32 31 30 28 28 28 28 28 28 28 28 27 27 27 27 27 25 24 23 22 22 23 22 20 18 17 16 16 15
9 10 11 12 13 15 17 19 20 23 25 26 28 30 32 34 35 36 37 38 39 40 40 40 40 40 39 38 37 36 36 35 35 36 36 37 38 38 37 36 36 35 34 33 32 31 30 29 28 28 28 27 27 27 27 27 27 27 27 27 26 25 23 23 23 23 22 21 19 17 16 15 15 14
Wind_Direction
270 270 270 269 269 268 268 268 268 267 267 267 266 266 266 266 265 264 263 262 261 260 260 261 261 260 259 259 258 258 258 257 257 256 256 255 254 252 252 251 251 249 249 248 248 248 247 247 246 245 244 244 244 243 243 243 243 244 244 244 245 245 245 245 245 245 245 244 244 244 243 243 242 242
270 270 269 269 269 268 268 267 267 267 267 266 266 266 266 265 265 265 264 263 262 261 260 260 260 260 260 260 259 258 258 258 257 257 256 255 254 253 253 252 251 250 249 249 248 248 248 247 247 246 245 244 244 243 243 243 243 243 244 244 244 245 245 245 245 245 245 245 245 244 244 244 244 243
270 270 269 269 268 268 267 267 266 266 266 265 265 265 265 265 265 265 265 264 263 262 261 261 260 260 260 260 260 259 258 258 258 258 257 256 255 254 253 252 252 251 250 250 249 248 247 247 247 246 245 245 244 244 243 243 243 243 243 244 244 244 244 245 245 245 245 245 245 245 245 245 245 244
271 270 269 269 269 268 268 267 266 266 265 265 264 264 264 263 263 263 264 264 263 262 262 261 260 260 260 259 260 260 259 258 258 258 258 257 256 255 254 253 252 251 251 250 250 249 248 247 247 246 246 245 244 244 243 243 243 243 243 243 244 244 244 245 245 245 245 245 245 245 245 245 245 245
271 270 270 269 269 268 268 267 267 266 266 265 264 264 263 263 262 262 262 262 262 262 261 261 260 259 259 258 258 259 259 258 258 257 257 257 256 256 255 254 253 252 251 250 250 249 249 248 247 247 246 246 245 244 244 243 243 243 243 243 243 244 244 244 245 245 245 245 245 245 245 245 245 245
270 270 269 268 268 267 267 266 266 266 266 265 264 264 263 263 262 262 261 261 261 260 260 260 259 258 258 257 257 257 257 257 257 256 256 256 256 255 255 254 253 252 251 250 250 249 249 248 248 247 246 246 245 245 244 244 243 243 243 243 243 244 244 244 245 245 245 245 245 245 245 245 245 245
269 269 268 267 267 266 265 265 264 264 264 264 264 263 263 262 262 261 261 260 260 259 259 258 258 257 257 256 255 254 254 254 254 254 254 254 254 254 254 253 252 251 251 250 249 249 248 248 248 247 247 246 246 245 245 244 244 244 243 243 243 243 244 244 244 245 245 245 246 246 246 246 245 245
269 268 267 266 265 265 264 263 262 262 261 261 261 261 261 261 261 260 260 260 259 259 258 257 256 255 255 254 253 252 251 252 252 252 252 252 252 252 252 251 251 250 249 249 249 248 247 247 247 246 246 246 245 245 245 244 244 244 244 243 243 243 244 244 244 244 245 245 246 246 246 246 246 246
268 267 266 265 264 263 262 262 261 260 259 259 258 258 258 258 258 258 258 258 258 257 256 256 254 253 253 252 251 249 249 249 249 249 249 249 249 250 250 250 250 249 248 248 247 247 246 245 245 245 245 245 245 244 244 244 244 243 243 243 243 243 243 244 244 244 245 245 245 246 246 246 247 247
267 266 265 264 263 262 261 260 259 258 257 257 256 256 256 256 256 255 255 255 256 255 255 254 253 252 251 251 249 246 245 246 246 245 245 246 246 247 248 248 248 247 247 246 246 246 245 244 244 244 244 243 243 243 243 243 243 243 243 243 243 243 243 243 244 244 245 245 246 246 246 246 247 247
267 266 265 263 262 261 260 259 258 257 256 255 255 254 254 254 254 253 253 253 253 253 253 252 252 251 250 249 249 246 242 242 242 242 242 243 243 244 245 245 245 246 245 245 245 245 245 244 243 243 243 242 242 242 242 241 241 241 242 242 242 242 242 243 243 244 244 245 246 246 246 247 247 247
267 266 265 263 262 261 259 258 257 256 255 254 254 253 252 252 252 251 251 251 251 251 251 250 250 249 248 247 247 245 241 239 239 241 241 241 240 241 241 243 244 245 245 244 245 245 245 244 243 242 242 241 241 241 241 240 240 240 240 241 241 241 242 242 242 243 244 244 245 246 246 247 247 247
268 266 265 263 262 260 259 258 256 255 254 253 253 252 251 250 250 250 249 249 249 249 249 248 248 247 246 246 245 243 241 238 237 240 241 240 239 239 239 241 243 244 245 244 244 244 244 244 244 242 241 241 240 240 240 240 240 240 240 240 240 240 241 241 242 242 243 243 244 245 246 246 247 248
268 267 265 263 262 260 259 257 256 255 253 253 252 250 249 249 249 248 247 247 247 247 246 246 246 245 245 244 244 242 241 237 235 239 241 240 239 238 238 239 242 244 245 245 244 243 243 242 242 242 241 240 240 239 239 239 239 239 239 239 239 240 240 240 241 241 242 242 243 244 245 246 247 247
269 268 266 265 263 261 260 258 256 254 253 252 251 250 248 247 247 247 246 246 245 245 245 244 244 243 243 242 242 240 239 236 234 238 241 240 238 238 238 238 240 243 245 246 245 244 242 242 241 241 241 240 239 239 239 239 239 239 239 239 239 239 239 240 240 240 241 241 242 243 244 245 246 247
271 269 268 266 265 263 261 259 257 254 253 251 250 249 247 246 246 245 245 245 244 243 243 242 241 241 240 240 239 238 237 235 234 238 240 239 238 238 237 238 240 242 245 247 246 244 243 242 241 240 240 239 239 239 238 238 239 238 238 239 239 239 239 239 240 240 240 241 241 242 243 244 245 246
273 271 269 268 267 265 263 261 258 256 254 252 250 248 246 245 244 244 244 243 242 242 241 240 239 238 238 237 236 236 235 234 234 237 239 239 238 236 236 237 239 242 244 247 246 244 242 242 240 238 238 237 237 238 238 238 238 238 238 238 238 238 239 239 239 240 240 241 241 242 243 244 245 246
276 274 272 269 267 264 262 261 259 257 254 253 251 249 247 245 243 243 242 241 241 240 240 238 237 235 235 234 233 233 233 232 232 235 238 239 237 235 234 235 238 242 245 246 245 243 241 241 239 237 236 235 235 235 236 236 237 237 237 238 238 238 239 239 240 240 240 241 241 242 243 244 245 246
280 278 275 271 268 265 263 261 259 256 254 252 250 249 248 246 244 242 241 241 240 239 238 236 234 233 232 231 231 230 230 230 231 233 236 237 235 233 233 235 238 242 244 243 243 241 240 239 237 235 234 234 233 233 233 234 234 235 235 236 236 237 238 238 239 239 240 240 241 242 242 243 244 246
281 279 276 273 270 266 263 260 259 256 253 251 249 248 247 246 244 242 241 240 238 237 236 234 231 230 229 228 228 228 228 228 229 231 234 236 234 232 232 234 237 240 240 239 239 238 237 237 236 234 233 232 231 231 231 231 231 231 232 233 233 234 235 236 237 238 238 239 240 240 241 242 244 246
281 279 276 273 271 268 264 260 257 256 253 251 249 247 245 244 242 241 239 237 235 234 233 230 228 226 225 224 224 225 225 225 226 228 231 233 231 229 229 232 235 236 236 236 236 236 236 236 235 233 232 231 229 228 228 228 228 228 229 230 230 231 232 234 235 236 237 238 239 239 241 242 244 247
283 280 277 275 272 269 266 261 257 255 253 251 248 246 243 241 240 238 236 235 233 231 229 227 224 222 221 221 221 222 222 223 224 226 229 229 228 227 227 230 233 234 234 235 235 235 235 235 233 232 231 229 228 227 226 226 226 226 226 227 228 230 231 232 234 235 236 237 238 239 241 244 246 249
282 278 276 275 274 272 268 263 259 255 253 250 247 244 242 239 236 234 232 232 231 228 226 224 221 219 218 217 218 219 219 220 221 224 226 226 225 224 226 228 231 232 233 233 234 234 234 232 231 230 228 227 226 225 224 224 224 224 225 226 228 230 231 232 233 235 236 237 239 241 244 246 249 252
279 276 274 274 274 272 268 262 258 254 252 249 245 242 240 236 232 230 227 227 227 225 223 221 218 216 215 214 214 215 216 217 219 221 224 223 222 222 224 227 229 231 231 231 232 232 231 229 228 226 225 224 223 222 221 220 222 223 225 227 228 230 232 233 234 235 237 239 241 244 247 250 251 253
283 280 279 276 273 270 266 260 255 251 248 245 241 238 235 230 226 224 223 222 221 221 219 217 214 213 212 212 212 212 213 214 216 219 221 220 219 220 223 225 227 228 228 229 230 230 228 226 224 222 221 220 218 217 217 219 221 223 225 226 228 230 232 234 236 237 240 242 245 248 250 251 251 251
294 291 287 282 275 269 262 254 249 245 242 239 235 231 227 222 219 218 217 217 217 216 215 213 210 209 209 209 209 209 210 211 213 216 217 217 216 219 221 222 223 225 226 227 227 226 224 222 220 218 216 215 214 214 216 219 221 223 225 227 229 232 234 236 239 241 244 246 248 249 249 249 248 247
305 298 292 284 273 263 254 246 240 237 234 231 227 223 219 216 215 213 213 213 213 212 212 210 207 206 206 206 205 206 207 209 210 212 214 214 214 216 218 219 221 222 224 225 225 223 220 217 214 212 211 212 212 214 216 219 221 223 226 228 232 235 237 240 242 244 246 246 246 245 245 244 243 242
309 299 290 281 269 257 246 237 231 227 225 222 218 214 213 213 212 211 210 210 209 208 208 206 204 203 203 202 202 203 205 206 207 209 210 211 212 214 215 217 219 220 221 222 221 219 216 212 209 208 209 211 213 214 217 219 221 224 227 230 234 237 240 242 243 244 243 242 241 241 240 240 240 241
304 296 288 279 269 256 243 232 226 222 219 215 212 210 209 210 210 209 208 207 205 204 203 202 201 200 199 199 199 200 202 204 205 206 207 208 210 212 214 215 217 218 219 219 217 214 211 207 206 206 209 211 214 216 218 220 223 226 229 232 236 239 242 242 242 241 240 239 238 238 239 239 240 241
301 295 287 275 261 250 238 227 221 218 214 210 208 208 208 208 207 206 204 203 201 200 200 200 198 196 196 196 196 198 200 201 202 203 205 206 208 210 212 214 215 217 217 217 214 211 207 205 204 206 210 213 216 218 220 222 224 227 230 234 238 240 241 241 240 239 238 238 238 238 239 240 241 242
302 293 282 263 244 234 227 219 215 213 209 206 206 205 204 202 201 200 199 198 197 197 197 196 194 192 192 193 194 196 198 199 200 201 203 204 206 208 210 212 213 214 215 214 211 208 205 204 205 207 211 214 217 220 221 222 225 228 232 236 238 240 239 238 239 239 238 238 239 239 240 241 243 244
301 282 260 237 224 220 216 212 209 207 204 204 203 202 199 197 194 194 193 193 194 194 193 191 189 188 189 190 192 194 196 196 197 200 201 203 205 207 208 210 211 212 213 212 209 206 204 204 206 209 212 216 219 220 221 223 226 230 234 236 238 238 237 237 239 240 240 239 240 240 242 243 244 245
298 268 239 217 208 208 207 206 205 202 199 199 196 193 193 194 192 190 191 191 191 190 187 186 185 186 187 189 191 193 193 193 196 198 200 202 204 205 207 209 210 210 210 209 207 205 205 205 207 211 214 217 219 220 220 223 226 230 234 236 236 236 237 238 239 240 240 240 240 242 244 245 246 248
302 265 238 219 207 202 199 198 197 194 191 190 187 183 185 189 189 187 187 187 186 185 183 183 183 184 186 188 189 190 191 192 195 197 199 201 203 204 206 208 208 208 208 207 205 205 205 207 209 212 215 218 219 219 220 223 227 230 232 234 235 236 237 238 238 238 239 240 241 243 246 248 249 250
318 278 242 223 209 201 196 192 189 186 184 184 183 181 182 184 184 183 183 182 181 180 180 181 182 183 185 186 187 188 189 191 194 196 198 200 201 203 205 206 207 207 206 205 204 204 206 208 210 213 215 216 217 218 220 223 227 229 231 232 234 235 236 237 237 237 237 239 242 245 247 249 250 250
347 318 240 219 207 199 194 192 188 185 183 182 180 178 179 179 180 179 179 177 177 177 178 179 181 182 184 185 185 187 189 191 193 195 197 199 200 202 204 205 205 205 204 203 203 204 206 208 211 213 214 214 215 217 219 223 226 228 230 231 233 233 234 234 235 236 238 241 245 247 248 249 249 250
12 353 236 211 202 195 190 188 185 181 178 176 173 173 176 176 175 175 174 173 174 175 176 178 180 181 182 183 184 186 188 190 192 194 196 198 199 202 204 204 203 203 203 202 203 204 206 208 210 211 211 212 214 216 219 222 225 227 229 230 231 231 232 232 233 236 240 244 248 249 248 248 249 251
28 19 320 192 184 180 178 177 174 170 168 167 167 171 174 173 170 169 170 171 173 174 175 177 179 180 181 183 185 186 188 189 191 193 195 197 199 201 202 202 202 202 201 201 203 205 206 208 209 209 210 211 213 215 218 221 224 225 227 229 230 231 232 232 234 237 242 247 249 248 247 249 253 257
42 49 60 133 160 164 166 166 165 164 163 164 166 170 171 168 166 166 168 170 171 172 174 176 178 179 181 183 184 185 187 189 191 193 195 197 199 200 200 200 200 199 199 200 202 204 205 207 207 208 209 211 213 215 217 220 222 224 226 227 229 231 232 233 236 240 245 248 247 245 246 251 257 262
48 68 94 130 150 156 161 164 164 164 164 165 166 167 167 165 165 166 167 169 171 172 174 175 177 179 181 182 183 184 186 189 191 193 195 196 197 198 199 199 198 196 196 198 201 202 203 205 206 207 209 211 213 215 217 220 222 224 226 227 229 231 233 235 237 242 246 247 244 243 248 255 261 267
62 82 109 133 146 153 159 163 164 164 164 165 165 164 163 164 165 166 167 169 170 171 173 175 177 178 179 181 183 185 187 189 191 192 194 195 196 197 197 197 195 194 195 197 199 200 202 204 205 206 208 210 213 215 217 220 222 223 225 227 228 231 233 235 239 244 246 244 242 244 253 261 267 272
80 97 116 132 144 150 155 160 162 163 163 163 162 162 162 163 164 166 167 169 170 171 173 175 176 177 179 181 183 185 187 189 191 192 194 194 195 196 195 194 193 193 194 197 198 200 202 204 205 206 208 210 213 215 217 219 221 222 223 226 227 230 233 236 239 244 244 241 241 246 256 265 272 279
91 105 119 131 141 149 154 157 159 160 161 162 162 162 162 163 164 166 167 169 170 172 173 175 176 178 179 182 184 186 187 189 190 192 193 193 193 193 192 191 191 192 195 197 199 200 202 204 203 204 207 210 213 215 217 219 220 221 222 225 227 229 232 235 239 241 240 239 241 248 258 268 276 282
100 112 122 131 139 147 152 154 156 159 160 161 162 163 163 163 164 166 168 170 171 172 174 175 176 178 180 183 185 186 187 188 189 190 190 190 191 191 190 189 190 192 195 198 199 200 202 202 202 203 207 211 213 216 218 219 220 220 221 224 226 228 230 233 235 236 236 237 240 248 258 268 277 283
108 117 126 133 139 145 149 152 154 158 160 162 163 164 164 165 165 167 169 171 173 173 174 176 177 179 181 184 185 186 187 188 188 188 188 188 189 189 189 189 190 192 195 198 200 201 201 201 201 204 209 211 214 217 219 219 220 220 220 223 225 226 227 230 231 231 232 234 238 246 256 266 275 283
Height
5365 5365 5365 5364 5365 5369 5369 5368 5369 5370 5371 5372 5373 5374 5374 5373 5373 5378 5384 5391 5402 5410 5409 5407 5411 5415 5420 5424 5425 5425 5427 5430 5433 5436 5440 5444 5447 5453 5459 5461 5464 5468 5472 5476 5480 5484 5489 5493 5498 5502 5507 5511 5515 5519 5523 5526 5529 5532 5535 5539 5542 5546 5549 5552 5556 5560 5563 5567 5570 5574 5578 5582 5586 5590
5346 5345 5346 5346 5346 5349 5350 5349 5350 5352 5353 5354 5355 5356 5357 5356 5355 5358 5362 5368 5381 5391 5392 5393 5396 5397 5401 5405 5408 5410 5411 5414 5417 5419 5424 5428 5431 5437 5443 5446 5448 5453 5458 5462 5466 5471 5475 5480 5484 5489 5494 5498 5502 5506 5510 5514 5517 5520 5524 5527 5531 5534 5538 5541 5545 5549 5552 5556 5560 5563 5567 5572 5576 5580
5325 5325 5326 5327 5327 5328 5329 5329 5331 5333 5333 5335 5336 5336 5338 5339 5338 5340 5341 5344 5358 5371 5372 5375 5380 5381 5383 5387 5388 5391 5395 5398 5401 5403 5406 5411 5414 5420 5425 5429 5433 5438 5443 5448 5452 5457 5461 5466 5470 5475 5480 5484 5489 5493 5497 5501 5505 5508 5512 5516 5519 5523 5527 5530 5534 5538 5541 5544 5548 5553 5557 5561 5565 5568
5304 5305 5306 5307 5308 5308 5307 5309 5311 5312 5313 5315 5315 5316 5318 5320 5320 5322 5323 5322 5335 5350 5349 5352 5362 5364 5364 5368 5370 5373 5377 5380 5385 5387 5389 5392 5397 5402 5408 5412 5417 5423 5428 5432 5437 5442 5446 5451 5456 5460 5465 5470 5475 5480 5484 5488 5492 5495 5499 5503 5507 5511 5515 5519 5522 5526 5529 5533 5537 5542 5546 5549 5553 5556
5284 5284 5287 5289 5290 5289 5287 5289 5291 5292 5294 5295 5295 5297 5298 5300 5302 5304 5305 5305 5313 5326 5328 5330 5340 5344 5343 5348 5355 5357 5357 5360 5367 5371 5371 5374 5379 5384 5390 5394 5400 5407 5412 5416 5421 5426 5431 5436 5441 5446 5451 5456 5461 5465 5470 5474 5478 5482 5486 5490 5495 5499 5503 5507 5511 5514 5518 5521 5525 5530 5533 5537 5540 5544
5264 5264 5267 5271 5272 5271 5269 5271 5273 5274 5276 5277 5277 5279 5279 5281 5284 5287 5287 5289 5293 5302 5309 5312 5319 5323 5323 5328 5337 5340 5339 5342 5347 5352 5354 5357 5362 5367 5372 5376 5383 5390 5395 5399 5405 5410 5415 5420 5425 5430 5435 5441 5446 5451 5455 5459 5464 5468 5473 5477 5482 5487 5491 5495 5499 5502 5506 5509 5513 5517 5521 5524 5528 5532
5245 5244 5247 5251 5253 5251 5250 5253 5256 5257 5259 5260 5259 5262 5263 5263 5267 5271 5271 5273 5276 5282 5290 5295 5300 5304 5306 5311 5319 5322 5323 5326 5329 5334 5339 5341 5345 5351 5354 5358 5364 5372 5377 5381 5387 5393 5399 5404 5409 5414 5420 5426 5432 5437 5441 5445 5449 5454 5459 5464 5469 5474 5478 5482 5486 5489 5493 5497 5501 5504 5508 5512 5516 5520
5225 5225 5227 5231 5232 5231 5231 5235 5239 5241 5243 5243 5242 5244 5247 5248 5252 5255 5256 5258 5261 5266 5273 5279 5284 5288 5290 5295 5303 5306 5308 5311 5314 5319 5323 5325 5329 5335 5338 5341 5346 5353 5360 5364 5368 5375 5381 5387 5392 5398 5403 5410 5416 5422 5426 5430 5435 5440 5445 5450 5455 5460 5465 5469 5473 5477 5481 5485 5488 5492 5495 5499 5503 5507
5205 5205 5207 5211 5212 5211 5213 5216 5220 5223 5225 5226 5225 5227 5232 5234 5237 5240 5241 5244 5247 5251 5257 5263 5268 5273 5276 5281 5288 5293 5295 5298 5302 5306 5309 5312 5315 5319 5324 5328 5332 5337 5343 5348 5351 5356 5363 5369 5375 5381 5387 5394 5401 5407 5411 5416 5421 5425 5431 5436 5441 5446 5451 5455 5460 5463 5467 5471 5475 5479 5483 5486 5490 5494
5184 5185 5188 5191 5192 5192 5194 5198 5201 5203 5206 5207 5208 5212 5216 5219 5221 5225 5227 5230 5233 5237 5243 5249 5253 5259 5265 5268 5274 5281 5285 5286 5290 5294 5297 5299 5303 5308 5312 5316 5319 5322 5327 5331 5334 5338 5345 5351 5358 5365 5372 5379 5386 5391 5395 5400 5405 5410 5416 5422 5427 5433 5437 5442 5446 5450 5454 5458 5462 5466 5470 5473 5477 5481
5165 5166 5168 5170 5173 5174 5176 5180 5183 5185 5186 5189 5192 5196 5199 5202 5205 5209 5212 5216 5219 5224 5230 5235 5239 5246 5252 5255 5261 5270 5274 5275 5279 5284 5287 5290 5294 5297 5300 5303 5305 5309 5314 5318 5320 5323 5330 5336 5343 5350 5357 5364 5370 5375 5379 5384 5389 5395 5401 5407 5413 5418 5423 5428 5433 5437 5441 5445 5449 5453 5457 5461 5464 5468
5147 5148 5150 5152 5154 5155 5157 5161 5164 5166 5168 5170 5174 5179 5183 5186 5189 5192 5197 5202 5206 5211 5216 5222 5227 5233 5239 5244 5250 5257 5261 5265 5272 5275 5277 5281 5284 5286 5289 5292 5295 5299 5304 5307 5308 5312 5318 5323 5329 5336 5343 5349 5355 5359 5363 5368 5374 5380 5386 5392 5398 5404 5409 5415 5420 5424 5428 5432 5436 5440 5444 5448 5451 5455
5132 5132 5133 5134 5136 5137 5139 5142 5145 5148 5150 5151 5156 5162 5165 5168 5171 5176 5182 5186 5191 5197 5203 5209 5215 5220 5227 5233 5240 5245 5250 5257 5264 5265 5266 5270 5274 5276 5279 5283 5286 5290 5294 5297 5299 5303 5308 5311 5316 5322 5329 5336 5340 5344 5348 5354 5360 5366 5372 5378 5384 5390 5396 5401 5406 5411 5415 5419 5423 5427 5431 5435 5438 5442
5117 5116 5116 5117 5119 5120 5122 5125 5127 5130 5132 5134 5138 5144 5148 5151 5154 5159 5164 5170 5177 5183 5189 5197 5203 5208 5216 5224 5230 5237 5242 5247 5253 5254 5256 5260 5264 5266 5270 5275 5279 5282 5285 5287 5290 5293 5297 5301 5305 5310 5317 5323 5327 5330 5335 5341 5347 5353 5358 5364 5371 5377 5383 5388 5393 5398 5402 5407 5411 5415 5419 5423 5426 5430
5105 5104 5103 5104 5105 5106 5107 5109 5111 5113 5115 5118 5121 5126 5131 5135 5138 5142 5148 5156 5163 5167 5174 5184 5190 5196 5206 5214 5220 5227 5232 5236 5241 5244 5247 5251 5254 5257 5262 5268 5271 5273 5276 5277 5280 5284 5287 5291 5296 5301 5306 5311 5315 5318 5324 5330 5335 5340 5346 5353 5359 5364 5370 5375 5380 5385 5390 5395 5399 5403 5407 5411 5414 5417
5095 5094 5093 5093 5094 5095 5095 5095 5097 5099 5101 5103 5106 5110 5114 5119 5123 5127 5133 5140 5147 5153 5160 5170 5177 5186 5196 5204 5210 5217 5222 5226 5231 5234 5238 5242 5246 5249 5255 5259 5262 5265 5267 5268 5271 5276 5280 5283 5288 5292 5297 5301 5304 5309 5314 5319 5324 5330 5336 5342 5347 5353 5358 5363 5368 5373 5378 5383 5387 5391 5395 5398 5401 5405
5086 5085 5085 5084 5085 5085 5085 5084 5085 5087 5088 5089 5092 5095 5099 5104 5109 5113 5119 5125 5132 5139 5146 5155 5166 5177 5186 5193 5201 5208 5212 5215 5219 5224 5230 5235 5238 5242 5247 5251 5254 5255 5258 5260 5263 5269 5273 5275 5279 5284 5288 5291 5295 5300 5305 5309 5314 5321 5326 5331 5336 5342 5347 5352 5357 5362 5367 5371 5375 5379 5383 5386 5390 5393
5076 5075 5074 5074 5075 5074 5074 5074 5074 5075 5077 5078 5080 5083 5087 5091 5096 5101 5106 5112 5118 5126 5133 5143 5156 5166 5174 5182 5191 5196 5200 5204 5210 5217 5223 5226 5230 5234 5238 5243 5246 5248 5252 5255 5257 5263 5266 5266 5270 5276 5279 5282 5287 5292 5296 5301 5306 5312 5317 5322 5327 5332 5337 5342 5347 5351 5356 5360 5364 5368 5372 5376 5379 5383
5065 5064 5062 5061 5062 5062 5063 5063 5062 5063 5064 5066 5068 5072 5076 5080 5085 5089 5095 5101 5108 5115 5122 5133 5144 5153 5162 5172 5179 5184 5189 5196 5203 5209 5214 5217 5222 5227 5231 5236 5240 5243 5246 5249 5251 5256 5258 5258 5263 5269 5272 5275 5281 5285 5289 5294 5299 5304 5308 5313 5318 5324 5329 5333 5337 5341 5345 5350 5354 5358 5362 5366 5370 5373
5054 5053 5050 5049 5049 5050 5052 5052 5050 5050 5051 5054 5057 5062 5066 5070 5074 5080 5086 5092 5098 5104 5111 5121 5132 5141 5150 5159 5166 5173 5181 5189 5195 5201 5206 5211 5217 5221 5225 5230 5233 5236 5239 5242 5245 5249 5250 5251 5257 5263 5265 5269 5274 5278 5282 5287 5292 5296 5301 5306 5311 5316 5320 5324 5328 5332 5336 5341 5345 5349 5353 5357 5360 5363
5046 5043 5041 5039 5039 5040 5041 5041 5040 5038 5040 5043 5047 5052 5056 5059 5064 5070 5077 5081 5086 5093 5100 5110 5120 5129 5138 5147 5156 5165 5173 5180 5187 5193 5199 5205 5210 5213 5218 5223 5226 5228 5232 5235 5238 5241 5244 5247 5252 5256 5259 5263 5267 5271 5276 5280 5285 5289 5294 5299 5304 5308 5312 5316 5320 5324 5329 5333 5337 5341 5344 5348 5350 5353
5038 5035 5032 5030 5030 5031 5032 5031 5030 5029 5030 5034 5039 5042 5045 5049 5055 5062 5068 5072 5078 5084 5091 5099 5108 5117 5127 5137 5147 5157 5165 5173 5180 5187 5194 5198 5202 5206 5212 5216 5218 5221 5226 5229 5233 5236 5239 5243 5247 5250 5253 5257 5261 5265 5270 5275 5279 5283 5288 5292 5297 5301 5305 5309 5313 5317 5321 5325 5329 5332 5335 5338 5341 5343
5031 5028 5025 5023 5022 5023 5023 5023 5022 5022 5023 5026 5031 5034 5036 5041 5047 5054 5060 5065 5071 5077 5082 5090 5099 5108 5118 5128 5139 5149 5158 5167 5174 5181 5187 5191 5196 5201 5206 5209 5212 5217 5221 5225 5228 5230 5233 5238 5241 5244 5247 5252 5256 5261 5265 5270 5274 5278 5282 5287 5291 5295 5299 5303 5307 5310 5314 5317 5321 5324 5327 5330 5331 5333
5023 5021 5019 5017 5016 5015 5016 5015 5015 5015 5016 5019 5023 5026 5030 5036 5041 5046 5052 5058 5064 5069 5074 5082 5092 5101 5111 5121 5132 5142 5152 5160 5168 5175 5180 5186 5191 5195 5200 5203 5208 5212 5216 5219 5222 5224 5228 5232 5235 5238 5242 5247 5251 5256 5261 5265 5269 5273 5278 5282 5286 5290 5293 5297 5300 5303 5307 5310 5313 5316 5318 5320 5321 5323
5016 5014 5012 5011 5009 5008 5009 5009 5008 5009 5011 5013 5017 5021 5025 5030 5035 5039 5045 5051 5056 5061 5067 5075 5085 5094 5104 5115 5126 5137 5146 5154 5163 5169 5175 5180 5185 5190 5194 5199 5203 5207 5211 5214 5216 5219 5223 5227 5230 5234 5238 5242 5247 5252 5256 5260 5265 5269 5274 5277 5281 5284 5287 5290 5293 5296 5299 5302 5305 5307 5309 5310 5311 5313
5010 5008 5006 5005 5003 5003 5003 5003 5003 5004 5006 5008 5012 5016 5020 5025 5028 5033 5038 5043 5048 5054 5061 5069 5078 5089 5099 5110 5121 5131 5140 5149 5157 5164 5169 5174 5180 5184 5189 5193 5197 5202 5205 5208 5211 5214 5218 5222 5226 5230 5234 5238 5243 5248 5253 5257 5261 5265 5269 5272 5275 5278 5281 5284 5286 5289 5292 5294 5296 5298 5299 5300 5302 5304
5004 5003 5001 5000 4999 4998 4998 4998 4998 5000 5001 5004 5008 5012 5016 5020 5023 5027 5032 5038 5043 5050 5057 5065 5075 5086 5095 5106 5117 5127 5135 5144 5152 5158 5163 5169 5175 5179 5184 5189 5193 5197 5200 5204 5207 5210 5213 5218 5222 5226 5231 5235 5240 5245 5249 5252 5256 5260 5263 5267 5270 5272 5274 5277 5280 5282 5284 5286 5287 5289 5291 5293 5295 5297
5001 4999 4998 4996 4995 4994 4994 4994 4995 4996 4998 5001 5005 5009 5013 5016 5019 5024 5029 5035 5041 5047 5055 5064 5074 5083 5093 5103 5113 5122 5130 5138 5146 5151 5157 5164 5170 5175 5180 5184 5188 5192 5196 5199 5203 5206 5210 5214 5219 5223 5228 5232 5237 5241 5244 5248 5252 5255 5258 5261 5264 5266 5268 5271 5273 5274 5276 5278 5280 5282 5285 5287 5288 5290
4998 4996 4995 4994 4993 4992 4992 4992 4993 4995 4998 5001 5004 5007 5010 5013 5018 5023 5029 5034 5040 5047 5055 5063 5072 5081 5090 5099 5108 5116 5125 5133 5140 5147 5153 5160 5166 5171 5176 5180 5184 5189 5192 5195 5198 5202 5206 5211 5215 5220 5225 5229 5233 5236 5240 5243 5247 5250 5253 5256 5258 5260 5262 5264 5266 5268 5270 5273 5275 5277 5279 5280 5282 5284
4996 4994 4993 4992 4991 4991 4991 4992 4993 4995 4998 5000 5003 5005 5009 5013 5019 5024 5029 5035 5041 5047 5054 5061 5069 5077 5086 5094 5103 5113 5121 5130 5137 5144 5151 5157 5162 5167 5172 5177 5181 5185 5188 5191 5195 5199 5203 5208 5212 5217 5221 5225 5229 5232 5236 5239 5242 5245 5248 5251 5253 5255 5257 5258 5260 5262 5265 5267 5269 5271 5273 5274 5276 5278
4994 4993 4992 4991 4990 4990 4991 4992 4993 4995 4998 5000 5002 5005 5010 5015 5019 5024 5029 5035 5040 5046 5052 5059 5067 5076 5084 5093 5103 5112 5120 5128 5135 5141 5147 5153 5159 5164 5169 5173 5177 5181 5184 5187 5191 5196 5200 5205 5209 5214 5218 5221 5225 5228 5232 5235 5238 5241 5244 5246 5248 5250 5252 5254 5255 5257 5260 5262 5264 5266 5267 5269 5271 5273
4993 4992 4991 4990 4990 4990 4991 4992 4993 4996 4999 5001 5003 5007 5011 5015 5019 5023 5028 5033 5038 5044 5051 5059 5068 5076 5085 5093 5102 5110 5118 5126 5132 5138 5144 5150 5155 5160 5165 5170 5174 5177 5181 5184 5188 5193 5197 5202 5206 5211 5214 5218 5221 5225 5228 5231 5234 5237 5239 5241 5243 5245 5247 5249 5251 5252 5255 5257 5259 5260 5262 5264 5265 5266
4992 4991 4990 4990 4989 4990 4991 4992 4994 4996 4999 5001 5005 5009 5013 5016 5019 5024 5028 5033 5039 5046 5053 5061 5068 5076 5084 5092 5101 5108 5116 5123 5129 5136 5142 5147 5152 5157 5162 5167 5170 5174 5177 5181 5185 5190 5195 5199 5204 5208 5211 5215 5218 5221 5224 5227 5230 5232 5235 5237 5239 5241 5243 5245 5246 5248 5250 5252 5254 5255 5257 5258 5259 5261
4992 4991 4990 4990 4990 4990 4991 4992 4994 4997 5000 5002 5005 5009 5012 5015 5019 5024 5029 5035 5041 5047 5054 5061 5069 5076 5084 5092 5100 5107 5115 5121 5127 5133 5139 5145 5150 5155 5160 5163 5167 5171 5174 5178 5183 5188 5192 5196 5201 5204 5208 5211 5214 5217 5220 5223 5226 5228 5231 5233 5235 5237 5239 5240 5242 5244 5246 5248 5249 5251 5252 5253 5254 5256
4992 4991 4991 4991 4991 4991 4991 4992 4994 4996 4999 5002 5005 5008 5011 5015 5020 5025 5030 5036 5042 5048 5055 5062 5070 5077 5085 5092 5099 5106 5113 5119 5125 5131 5137 5143 5148 5153 5156 5160 5164 5168 5171 5176 5180 5185 5189 5193 5197 5201 5204 5208 5211 5214 5217 5219 5222 5224 5227 5229 5231 5233 5235 5236 5238 5240 5242 5243 5245 5246 5247 5248 5249 5250
4993 4992 4992 4992 4992 4992 4993 4994 4995 4997 4999 5002 5005 5009 5013 5017 5022 5026 5032 5037 5043 5050 5057 5064 5071 5078 5085 5092 5099 5106 5112 5118 5124 5130 5136 5141 5146 5150 5153 5157 5161 5165 5169 5173 5178 5182 5186 5190 5194 5198 5201 5204 5207 5210 5213 5216 5218 5221 5223 5225 5228 5229 5231 5233 5234 5236 5238 5240 5241 5242 5243 5244 5244 5245
4995 4994 4994 4994 4994 4995 4996 4997 4998 5001 5003 5006 5009 5012 5015 5019 5023 5028 5034 5039 5045 5052 5058 5065 5072 5078 5085 5092 5098 5104 5110 5116 5123 5128 5134 5139 5143 5147 5151 5155 5159 5162 5166 5171 5175 5179 5183 5187 5191 5195 5198 5201 5204 5207 5210 5212 5215 5217 5220 5222 5224 5226 5227 5229 5231 5233 5234 5236 5237 5238 5239 5239 5240 5241
4997 4997 4997 4997 4997 4998 4999 5000 5002 5004 5006 5009 5012 5016 5019 5022 5026 5031 5036 5042 5047 5053 5060 5066 5072 5079 5086 5092 5098 5104 5110 5116 5122 5127 5132 5136 5140 5144 5148 5152 5156 5160 5164 5169 5173 5177 5181 5185 5188 5192 5194 5197 5200 5204 5206 5209 5212 5214 5217 5219 5220 5222 5224 5226 5228 5229 5231 5232 5233 5234 5235 5235 5236 5236
5000 4999 4999 5000 5001 5001 5002 5004 5005 5007 5009 5011 5014 5017 5021 5025 5030 5034 5039 5044 5050 5055 5061 5067 5074 5080 5086 5092 5098 5104 5110 5115 5121 5125 5130 5134 5138 5142 5146 5150 5154 5158 5162 5166 5170 5174 5178 5182 5186 5189 5191 5194 5197 5200 5203 5206 5209 5211 5214 5216 5218 5219 5221 5223 5225 5226 5227 5228 5229 5230 5231 5232 5232 5232
5003 5002 5002 5002 5003 5004 5005 5007 5008 5009 5011 5013 5016 5020 5024 5028 5033 5037 5042 5047 5052 5058 5063 5069 5075 5081 5087 5092 5098 5104 5109 5114 5119 5123 5128 5132 5136 5140 5144 5147 5151 5156 5160 5164 5168 5172 5176 5179 5182 5185 5188 5191 5195 5198 5201 5204 5206 5209 5211 5213 5215 5217 5218 5220 5221 5223 5224 5225 5226 5227 5228 5228 5229 5228
5005 5005 5004 5004 5005 5005 5007 5008 5010 5012 5014 5016 5019 5023 5026 5031 5035 5040 5044 5049 5054 5060 5065 5071 5076 5082 5087 5093 5098 5103 5108 5113 5117 5121 5126 5130 5134 5138 5141 5145 5150 5154 5158 5162 5166 5170 5173 5176 5179 5182 5186 5189 5192 5195 5198 5201 5203 5206 5208 5210 5212 5214 5215 5217 5218 5219 5220 5221 5223 5224 5224 5225 5225 5224
5008 5007 5007 5007 5007 5008 5009 5010 5012 5014 5017 5019 5022 5026 5029 5033 5038 5042 5047 5052 5057 5062 5067 5072 5077 5082 5088 5093 5098 5102 5107 5111 5116 5120 5124 5128 5132 5136 5140 5144 5148 5152 5156 5159 5163 5167 5170 5173 5177 5181 5184 5187 5190 5193 5195 5198 5200 5203 5205 5207 5209 5211 5213 5214 5215 5216 5217 5218 5220 5221 5221 5222 5221 5221
5010 5010 5010 5010 5010 5011 5012 5013 5015 5017 5020 5023 5025 5029 5032 5036 5040 5045 5049 5054 5058 5063 5068 5073 5078 5083 5088 5093 5097 5102 5106 5110 5114 5119 5123 5127 5131 5134 5138 5143 5147 5150 5154 5158 5161 5165 5168 5172 5176 5179 5182 5184 5187 5190 5192 5195 5198 5200 5202 5204 5206 5209 5210 5211 5213 5214 5214 5216 5217 5218 5219 5219 5218 5218
5012 5012 5012 5013 5013 5014 5015 5016 5018 5020 5023 5026 5029 5032 5035 5039 5043 5048 5052 5056 5060 5064 5069 5074 5079 5083 5088 5092 5097 5101 5105 5109 5113 5118 5122 5126 5129 5133 5137 5141 5145 5149 5153 5156 5160 5163 5167 5170 5174 5177 5179 5182 5184 5187 5190 5193 5195 5197 5200 5202 5204 5206 5208 5209 5210 5211 5212 5213 5215 5216 5216 5216 5216 5215
5015 5015 5015 5015 5016 5017 5018 5019 5021 5024 5026 5029 5032 5035 5039 5042 5046 5050 5054 5058 5062 5066 5070 5075 5079 5084 5088 5092 5097 5101 5105 5109 5113 5117 5121 5124 5128 5132 5136 5140 5144 5147 5151 5154 5158 5161 5165 5168 5172 5174 5177 5180 5183 5185 5188 5190 5193 5195 5197 5199 5201 5204 5205 5206 5207 5208 5210 5211 5213 5214 5214 5214 5214 5213